Regional Weather Roundup
Issued by NWS

Home | Current Version | Previous Version | Graphics & Text | Print | Product List | Glossary On
Versions: 1 2 3 4 5 6 7 8 9 10 11 12 13 14 15 16 17 18 19 20 21 22 23 24 25 26 27 28 29 30 31 32 33 34 35 36 37 38 39 40 41 42 43 44 45 46 47 48 49 50
815
ASUS43 KBIS 032110
RWRND

NORTH DAKOTA REGIONAL WEATHER ROUNDUP
NATIONAL WEATHER SERVICE BISMARCK ND
400 PM CDT TUE MAY 03 2016

NOTE: "FAIR" INDICATES FEW OR NO CLOUDS BELOW 12,000 FEET WITH NO
SIGNIFICANT WEATHER AND/OR OBSTRUCTIONS TO VISIBILITY.


NDZ001>003-009>011-017-032200-
NORTHWEST NORTH DAKOTA

CITY           SKY/WX    TMP DP  RH WIND       PRES   REMARKS
WILLISTON      SUNNY     82  38  20 N14G26    30.03S
MINOT          SUNNY     79  31  17 NW18G26   30.00S
MINOT AFB      SUNNY     74  34  22 N20       29.99F
$$

NDZ018>021-031>035-040>046-032200-
SOUTHWEST NORTH DAKOTA

CITY           SKY/WX    TMP DP  RH WIND       PRES   REMARKS
BISMARCK       SUNNY     75  36  24 N17G30    29.97S
DICKINSON      SUNNY     75  34  22 NW17G25   30.03S
GARRISON         N/A     75  35  23 N20       30.00S
HETTINGER ARPT SUNNY     77  35  21 N10G21    30.05S
$$

NDZ004>008-012>016-024-026-027-054-032200-
NORTHEAST NORTH DAKOTA

CITY           SKY/WX    TMP DP  RH WIND       PRES   REMARKS
GRAND FORKS    SUNNY     67  31  26 N29G38    29.89S
GRND FRKS AFB  SUNNY     66  28  24 N22G31    29.91R
DEVILS LAKE    SUNNY     67  24  19 N25G32    29.96R
$$

NDZ022-023-025-028>030-036>039-047>053-032200-
SOUTHEAST NORTH DAKOTA

CITY           SKY/WX    TMP DP  RH WIND       PRES   REMARKS
FARGO          SUNNY     70  28  21 N36G43    29.85R
JAMESTOWN      SUNNY     70  27  20 N24G33    29.92S
$$





USA.gov is the U.S. government's official web portal to all federal, state and local government web resources and services.